Location: Dalton
(34.7700°N, 84.9700°W)
Time: 08:46:37
(UTC-05:00)

Vanguard 3 - All Passes

Search period start: 20 February 2018 00:00
Search period end: 02 March 2018 00:00
Orbit: 508 x 3264 km, 33.3° (Epoch: 19 February)

Date Brightness Start Highest point End Pass type
(mag) Time Alt. Az. Time Alt. Az. Time Alt. Az.
20 Feb - 12:58:58 10° S 13:01:25 12° SSE 13:03:33 10° SE daylight
20 Feb - 15:08:22 10° SW 15:13:36 32° SSE 15:17:19 10° E daylight
20 Feb - 17:20:47 10° WSW 17:24:54 70° S 17:28:33 10° E daylight
20 Feb - 19:32:28 10° W 19:36:03 52° SSW 19:40:32 10° ESE visible
20 Feb - 21:44:09 10° WSW 21:47:35 20° SSW 21:52:10 10° SSE visible
21 Feb - 13:54:09 10° SSW 13:59:55 24° SSE 14:03:57 10° ESE daylight
21 Feb - 16:06:33 10° WSW 16:11:36 55° S 16:15:19 10° E daylight
21 Feb - 18:19:03 10° W 18:22:48 68° S 18:26:39 10° ESE daylight
21 Feb - 20:30:35 10° W 20:33:59 28° SSW 20:38:26 10° SE visible
22 Feb - 12:40:16 10° SSW 12:45:52 18° SSE 12:50:01 10° ESE daylight
22 Feb - 14:51:54 10° SW 14:58:10 42° SSE 15:02:16 10° E daylight
22 Feb - 17:05:06 10° W 17:09:33 73° S 17:13:12 10° E daylight
22 Feb - 19:17:11 10° W 19:20:40 42° SSW 19:24:40 10° ESE visible
22 Feb - 21:29:49 10° SW 21:32:06 14° SSW 21:34:50 10° S visible
23 Feb - 11:27:45 10° S 11:31:25 12° SSE 11:34:32 10° SE daylight
23 Feb - 13:37:03 10° SW 13:44:25 32° SSE 13:49:07 10° E daylight
23 Feb - 15:50:32 10° WSW 15:56:13 65° S 16:00:06 10° E daylight
23 Feb - 18:03:32 10° W 18:07:28 62° S 18:11:09 10° ESE daylight
23 Feb - 20:15:38 10° WSW 20:18:33 21° SSW 20:22:03 10° SSE visible
24 Feb - 12:22:21 10° SSW 12:30:16 24° SSE 12:35:33 10° ESE daylight
24 Feb - 14:35:25 10° WSW 14:42:41 51° SSE 14:47:09 10° E daylight
24 Feb - 16:49:19 10° W 16:54:12 75° S 16:57:53 10° E daylight
24 Feb - 19:01:53 10° W 19:05:17 34° SSW 19:08:52 10° SE visible
25 Feb - 11:08:21 10° S 11:15:41 18° SSE 11:21:07 10° ESE daylight
25 Feb - 13:20:01 10° SW 13:28:50 40° SSE 13:34:08 10° E daylight
25 Feb - 15:34:24 10° WSW 15:40:47 72° S 15:44:54 10° E daylight
25 Feb - 17:47:56 10° W 17:52:06 56° SSW 17:55:41 10° ESE daylight
25 Feb - 20:00:51 10° WSW 20:03:05 15° SSW 20:05:32 10° SSE visible
26 Feb - 09:56:35 10° SSE 10:00:41 12° SSE 10:04:15 10° SE daylight
26 Feb - 12:04:39 10° SSW 12:14:34 31° SSE 12:20:46 10° E daylight
26 Feb - 14:18:51 10° WSW 14:27:09 61° SSE 14:32:01 10° E daylight
26 Feb - 16:33:26 10° W 16:38:49 74° S 16:42:38 10° E daylight
26 Feb - 18:46:32 10° W 18:49:51 27° SSW 18:53:05 10° SE daylight
27 Feb - 10:49:50 10° SSW 10:59:52 24° SSE 11:06:43 10° ESE daylight
27 Feb - 13:02:57 10° SW 13:13:11 49° SSE 13:19:02 10° E daylight
27 Feb - 15:18:10 10° W 15:25:20 77° S 15:29:43 10° E daylight
27 Feb - 17:32:15 10° W 17:36:42 49° SSW 17:40:15 10° ESE daylight
27 Feb - 19:46:42 10° SW 19:47:32 11° SSW 19:48:24 10° SSW visible
28 Feb - 09:36:17 10° S 09:44:43 17° SSE 09:51:16 10° ESE daylight
28 Feb - 11:47:03 10° SW 11:58:46 39° SSE 12:05:46 10° E daylight
28 Feb - 14:02:15 10° WSW 14:11:35 69° S 14:16:51 10° E daylight
28 Feb - 16:17:26 10° W 16:23:25 72° S 16:27:23 10° ESE daylight
28 Feb - 18:31:10 10° W 18:34:21 22° SSW 18:37:16 10° SSE daylight
01 Mar - 10:31:37 10° SSW 10:43:54 30° SSE 10:51:55 10° E daylight
01 Mar - 12:45:53 10° WSW 12:57:27 58° SSE 13:03:53 10° E daylight
01 Mar - 15:01:51 10° W 15:09:50 79° S 15:14:32 10° E daylight
01 Mar - 17:16:27 10° W 17:21:15 43° SSW 17:24:50 10° SE daylight
